Salalah, Oman

3:12 AM GST on February 11, 2016 (GMT +0400)
Salalah

Weather History for OOSA - February, 2013

Change the Weather History Date:

Saturday, February 16, 2013

  Actual Average Record
Temperature  
Mean Temperature 76 °F -  
Max Temperature 86 °F 82 °F 89 °F (2002)
Min Temperature 65 °F 68 °F 35 °F (2009)
Cooling Degree Days 10    
Growing Degree Days 26 (Base 50)    
Moisture  
Dew Point 40 °F    
Average Humidity 32    
Maximum Humidity 65    
Minimum Humidity 5    
Precipitation  
Precipitation 0.00 in 0.01 in - ()
Sea Level Pressure  
Sea Level Pressure 29.95 in    
Wind  
Wind Speed 8 mph ()    
Max Wind Speed 14 mph    
Max Gust Speed -    
Visibility 6.1 miles    
Events      
Averages and records for this station are not official NWS values.
T = Trace of Precipitation, MM = Missing Value Source: Averaged Metar Reports

Daily Weather History Graph

Daily Weather History Graph

Search for Another Location

Airport or City:

Trip Planner

Search our weather history database for the weather conditions in past years. The results will help you decide how hot, cold, wet, or windy it might be!

Date:

Astronomy

Feb. 16, 2013 Rise Set
Actual Time 6:49 AM GST 6:26 PM GST
Civil Twilight 6:27 AM GST 6:48 PM GST
Nautical Twilight 6:01 AM GST 7:13 PM GST
Astronomical Twilight 5:36 AM GST 7:39 PM GST
Moon 10:49 AM GST (2/16) 11:55 PM GST (2/16)
Length of Visible Light 12h 20m
Length of Day
11h 36m
Waxing Crescent, 36% of the Moon is Illuminated
Feb 16
Waxing Crescent
Feb 18
First Quarter
Feb 26
Full
Mar 5
Last Quarter
Mar 11
New

Hourly Weather History & Observations

Time (GST) Temp. Heat Index Dew Point Humidity Pressure Visibility Wind Dir Wind Speed Gust Speed Precip Events Conditions
12:50 AM 73.4 °F - 17.6 °F 12% 29.95 in - NNE 9.2 mph - N/A   Clear
1:00 AM 73 °F - 18 °F 5% 29.95 in 6 mi NNE 9.2 mph - -  
1:50 AM 73.4 °F - 19.4 °F 13% 29.92 in - North 9.2 mph - N/A   Clear
2:50 AM 73.4 °F - 19.4 °F 13% 29.92 in - NNE 10.4 mph - N/A   Clear
3:50 AM 73.4 °F - 19.4 °F 13% 29.92 in - NNE 11.5 mph - N/A   Clear
4:00 AM 73 °F - 19 °F 6% 29.94 in 6 mi NNE 11.5 mph - -  
4:50 AM 71.6 °F - 19.4 °F 14% 29.92 in - NNE 11.5 mph - N/A   Clear
5:50 AM 69.8 °F - 21.2 °F 16% 29.95 in 6.2 mi NNE 11.5 mph - N/A   Unknown
6:50 AM 64.4 °F - 21.2 °F 19% 29.98 in - ENE 9.2 mph - N/A   Clear
7:00 AM 65 °F - 22 °F 10% 29.98 in 6 mi ENE 9.2 mph - -   Clear
7:50 AM 71.6 °F - 21.2 °F 15% 29.98 in - NNE 11.5 mph - N/A   Clear
8:50 AM 78.8 °F - 21.2 °F 12% 30.01 in - NNE 9.2 mph - N/A   Clear
9:50 AM 80.6 °F - 23.0 °F 12% 30.01 in - NNE 11.5 mph - N/A   Clear
10:00 AM 80 °F - 23 °F 5% 30.03 in 6 mi NNE 11.5 mph - -  
10:50 AM 84.2 °F - 23.0 °F 11% 30.01 in - North 10.4 mph - N/A   Clear
11:50 AM 86.0 °F - 23.0 °F 10% 29.95 in - North 6.9 mph - N/A   Clear
12:50 PM 80.6 °F 80.5 °F 55.4 °F 42% 29.95 in - SE 12.7 mph - N/A   Clear
1:00 PM 81 °F - 55 °F 30% 29.95 in 6 mi SE 12.7 mph - -  
1:50 PM 80.6 °F 80.8 °F 57.2 °F 45% 29.92 in - SSE 13.8 mph - N/A   Clear
2:50 PM 80.6 °F 81.5 °F 60.8 °F 51% 29.92 in - SE 10.4 mph - N/A   Clear
3:50 PM 78.8 °F - 59.0 °F 51% 29.92 in 6.2 mi SSE 10.4 mph - N/A   Partly Cloudy
4:00 PM 79 °F - 59 °F 40% 29.92 in 6 mi SSE 10.4 mph - -   Scattered Clouds
4:50 PM 78.8 °F - 57.2 °F 47% 29.92 in 6.2 mi SSE 8.1 mph - N/A   Unknown
5:50 PM 77.0 °F - 60.8 °F 57% 29.92 in - South 6.9 mph - N/A   Clear
6:50 PM 75.2 °F - 60.8 °F 61% 29.95 in - SE 4.6 mph - N/A   Clear
7:00 PM 76 °F - 61 °F 50% 29.95 in 6 mi SE 4.6 mph - -  
7:50 PM 75.2 °F - 60.8 °F 61% 29.95 in - ESE 3.5 mph - N/A   Clear
8:50 PM 75.2 °F - 60.8 °F 61% 29.98 in 6.2 mi Calm Calm - N/A   Unknown
9:50 PM 73.4 °F - 60.8 °F 65% 29.98 in - Calm Calm - N/A   Clear
10:00 PM 74 °F - 61 °F 54% 29.98 in 6 mi Calm Calm - -  
10:50 PM 71.6 °F - 59.0 °F 64% 29.95 in 6.2 mi Calm Calm - N/A   Unknown
11:50 PM 71.6 °F - 57.2 °F 60% 29.95 in - Calm Calm - N/A   Clear